Horn Island Observation History
Time Wind Speed Temp Pressure Rel. Hum Rain
05/08:30pm SE 13-19 kts 26.3°c 1012.6 hPa 81% 0.0mm
05/08:00pm SE 13-20 kts 26.3°c 1012.3 hPa 81% 0.0mm
05/07:30pm SE 12-20 kts 26.4°c 1012.0 hPa 81% 0.0mm
05/07:00pm SE 12-17 kts 26.4°c 1011.6 hPa 81% 0.0mm
05/06:30pm SE 14-21 kts 26.4°c 1011.3 hPa 81% 0.0mm
05/06:11pm SE 12-20 kts 26.4°c 1011.1 hPa 81% 0.0mm
05/06:00pm SE 13-20 kts 26.4°c 1011.1 hPa 80% 0.0mm
05/05:30pm SE 12-17 kts 26.4°c 1010.9 hPa 80% 0.0mm
05/05:29pm SE 12-16 kts 26.4°c 1010.9 hPa 80% 0.0mm
05/05:10pm SE 12-16 kts 26.1°c 1010.8 hPa 80% 0.0mm
05/05:00pm SE 13-19 kts 25.7°c 1010.7 hPa 78% 0.0mm
05/04:52pm SE 15-21 kts 26.3°c 1010.8 hPa 77% 0.0mm
05/04:50pm SE 16-21 kts 26.6°c 1010.8 hPa 77% 0.0mm
05/04:30pm SE 15-21 kts 27.2°c 1010.6 hPa 77% 0.0mm
05/04:00pm SE 18-25 kts 27.7°c 1010.6 hPa 75% 0.0mm
05/03:30pm SE 17-22 kts 28.0°c 1010.6 hPa 74% 0.0mm
05/03:00pm SE 15-21 kts 27.9°c 1011.0 hPa 74% 0.0mm
05/02:36pm SE 17-27 kts 27.5°c 1011.4 hPa 73% 0.0mm
05/02:30pm SE 21-28 kts 27.5°c 1011.5 hPa 72% 0.0mm
05/02:16pm ESE 17-27 kts 28.8°c 1011.4 hPa 71% 0.0mm
05/02:00pm SE 17-23 kts 28.8°c 1011.8 hPa 71% 0.0mm
05/01:30pm ESE 16-24 kts 28.7°c 1012.2 hPa 71% 0.0mm
05/01:00pm ESE 18-26 kts 28.2°c 1012.5 hPa 70% 0.0mm
05/12:30pm ESE 18-28 kts 29.5°c 1012.5 hPa 69% 0.0mm
05/12:25pm SE 18-28 kts 29.4°c 1012.5 hPa 68% 0.0mm
05/12:00pm ESE 19-28 kts 29.5°c 1012.8 hPa 68% 0.0mm
05/11:30am ESE 18-28 kts 29.9°c 1013.1 hPa 70% 0.0mm
05/11:28am ESE 18-28 kts 30.2°c 1013.2 hPa 70% 0.0mm
05/11:00am ESE 18-24 kts 29.3°c 1013.5 hPa 72% 0.0mm
05/10:30am SE 17-23 kts 28.9°c 1013.7 hPa 73% 0.0mm
05/10:00am SE 16-24 kts 28.4°c 1013.8 hPa 75% 0.0mm
05/09:37am SE 15-25 kts 28.1°c 1013.9 hPa 78% 0.0mm
05/09:30am SE 14-25 kts 27.7°c 1013.9 hPa 78% 0.0mm
05/09:00am SE 12-17 kts 26.8°c 1013.9 hPa 79% 0.0mm
05/08:30am SE 12-19 kts 26.4°c 1013.7 hPa 80% 0.0mm
05/08:00am SSE 10-16 kts 25.6°c 1013.6 hPa 81% 0.0mm
05/07:30am SSE 12-19 kts 25.5°c 1013.2 hPa 81% 0.0mm
05/07:02am SE 11-16 kts 25.0°c 1013.0 hPa 81% 0.0mm
05/07:00am SE 11-16 kts 25.0°c 1012.9 hPa 81% 0.0mm
05/06:30am SE 11-19 kts 24.7°c 1012.7 hPa 81% 0.0mm
05/06:27am SE 10-16 kts 24.8°c 1012.8 hPa 81% 0.0mm
05/06:12am SE 10-18 kts 24.7°c 1012.6 hPa 80% 0.0mm
05/06:00am SSE 12-20 kts 24.8°c 1012.5 hPa 80% 0.0mm
05/05:59am SSE 13-20 kts 24.8°c 1012.5 hPa 80% 0.0mm
05/05:30am SSE 10-15 kts 24.9°c 1012.3 hPa 80% 0.0mm
05/05:00am SSE 13-22 kts 25.1°c 1012.2 hPa 79% 0.0mm
05/04:30am SSE 13-17 kts 25.0°c 1011.9 hPa 79% 0.0mm
05/04:00am SSE 11-17 kts 25.2°c 1012.0 hPa 78% 0.0mm
05/03:30am SSE 13-19 kts 25.4°c 1012.0 hPa 78% 0.0mm
05/03:00am SSE 13-19 kts 25.4°c 1012.1 hPa 77% 0.0mm
05/02:30am SSE 12-17 kts 25.6°c 1012.4 hPa 77% 0.0mm
05/02:00am SSE 12-18 kts 25.5°c 1012.8 hPa 77% 0.0mm
05/01:30am SSE 12-18 kts 25.7°c 1013.2 hPa 76% 0.0mm
05/01:00am SE 13-20 kts 25.7°c 1013.5 hPa 76% 0.0mm
05/12:30am SE 12-18 kts 25.8°c 1013.8 hPa 76% 0.0mm
05/12:00am SE 10-16 kts 25.7°c 1013.9 hPa 76% 0.0mm
Time Wind Speed Temp Pressure Rel. Hum Rain
04/11:30pm SSE 12-17 kts 25.7°c 1014.2 hPa 75% 0.0mm
04/11:00pm SSE 13-20 kts 25.8°c 1014.7 hPa 75% 0.0mm
04/10:30pm SE 14-22 kts 25.7°c 1014.7 hPa 75% 0.0mm
04/10:00pm SSE 13-21 kts 25.7°c 1014.8 hPa 75% 0.0mm
04/09:30pm SE 12-21 kts 25.8°c 1014.7 hPa 74% 0.0mm
04/09:00pm SE 13-21 kts 25.7°c 1014.3 hPa 74% 0.0mm
04/08:30pm SSE 13-21 kts 25.8°c 1014.2 hPa 74% 0.0mm
04/08:00pm SSE 13-19 kts 25.8°c 1013.9 hPa 73% 0.0mm
04/07:30pm SSE 15-20 kts 26.0°c 1013.6 hPa 73% 0.0mm
04/07:00pm SSE 13-20 kts 26.1°c 1013.3 hPa 72% 0.0mm
04/06:30pm SSE 13-19 kts 26.3°c 1012.9 hPa 71% 0.0mm
04/06:00pm SSE 13-18 kts 26.6°c 1012.7 hPa 69% 0.0mm
04/05:30pm SE 12-20 kts 26.9°c 1012.8 hPa 69% 0.0mm
04/05:00pm SE 13-18 kts 27.1°c 1012.7 hPa 68% 0.0mm
04/04:30pm SE 13-19 kts 27.7°c 1012.5 hPa 66% 0.0mm
04/04:00pm SE 15-21 kts 28.0°c 1012.2 hPa 65% 0.0mm
04/03:30pm SE 17-23 kts 28.5°c 1012.3 hPa 64% 0.0mm
04/03:00pm ESE 16-21 kts 28.9°c 1012.3 hPa 64% 0.0mm
04/02:30pm ESE 18-26 kts 29.1°c 1012.4 hPa 62% 0.0mm
04/02:00pm ESE 15-20 kts 29.7°c 1012.8 hPa 61% 0.0mm
04/01:30pm ESE 18-25 kts 29.5°c 1013.4 hPa 63% 0.0mm
04/01:00pm SE 17-25 kts 29.2°c 1013.8 hPa 63% 0.0mm
04/12:30pm SE 17-22 kts 29.6°c 1014.2 hPa 65% 0.0mm
04/12:00pm SE 16-23 kts 29.1°c 1014.6 hPa 64% 0.0mm
04/11:30am SE 18-25 kts 29.0°c 1014.9 hPa 66% 0.0mm
04/11:00am SE 16-22 kts 29.3°c 1015.4 hPa 68% 0.0mm
04/10:30am SE 17-22 kts 28.6°c 1015.4 hPa 68% 0.0mm
04/10:00am SE 16-19 kts 28.0°c 1015.5 hPa 70% 0.0mm
04/09:30am SE 12-16 kts 27.1°c 1015.5 hPa 73% 0.0mm
04/09:00am SE 12-17 kts 27.0°c 1015.2 hPa 74% 0.0mm
04/08:30am SE 11-16 kts 26.3°c 1015.1 hPa 75% 0.0mm
04/08:00am SSE 11-15 kts 25.5°c 1014.8 hPa 75% 0.0mm
04/07:30am SSE 9-13 kts 25.3°c 1014.4 hPa 75% 0.0mm
04/07:00am SSE 8-11 kts 24.9°c 1014.1 hPa 75% 0.0mm
04/06:30am SSE 6-10 kts 24.9°c 1014.1 hPa 74% 0.0mm
04/06:00am SSE 8-12 kts 25.1°c 1013.7 hPa 74% 0.0mm
04/05:30am SSE 7-9 kts 25.0°c 1013.5 hPa 73% 0.0mm
04/05:00am SE 9-13 kts 25.2°c 1013.3 hPa 73% 0.0mm
04/04:30am SE 11-15 kts 25.3°c 1012.9 hPa 73% 0.0mm
04/04:00am SSE 11-16 kts 25.4°c 1012.9 hPa 73% 0.0mm
04/03:30am SE 11-16 kts 25.5°c 1013.0 hPa 73% 0.0mm
04/03:00am SE 11-16 kts 25.5°c 1013.2 hPa 73% 0.0mm
04/02:30am SE 11-17 kts 25.6°c 1013.6 hPa 73% 0.0mm
04/02:00am SE 10-15 kts 25.6°c 1013.9 hPa 72% 0.0mm
04/01:30am SE 12-18 kts 25.7°c 1014.1 hPa 72% 0.0mm
04/01:00am SE 11-17 kts 25.7°c 1014.5 hPa 72% 0.0mm
04/12:30am SE 12-17 kts 25.7°c 1014.7 hPa 72% 0.0mm
04/12:00am SSE 11-16 kts 25.6°c 1015.0 hPa 72% 0.0mm
Time Wind Speed Temp Pressure Rel. Hum Rain
03/11:30pm SSE 11-17 kts 25.7°c 1015.0 hPa 72% 0.0mm
03/11:00pm SE 10-16 kts 25.6°c 1015.3 hPa 72% 0.0mm
03/10:30pm SSE 10-17 kts 25.6°c 1015.4 hPa 70% 0.0mm
03/10:00pm SSE 11-16 kts 25.6°c 1015.4 hPa 70% 0.0mm
03/09:30pm SE 12-17 kts 25.8°c 1015.2 hPa 70% 0.0mm
03/09:00pm SE 11-17 kts 25.8°c 1015.1 hPa 69% 0.0mm
03/08:30pm SE 14-23 kts 25.9°c 1015.0 hPa 69% 0.0mm
03/08:00pm SE 12-18 kts 25.9°c 1014.6 hPa 69% 0.0mm
03/07:30pm SE 13-18 kts 26.0°c 1014.0 hPa 67% 0.0mm
03/07:00pm SE 12-19 kts 26.2°c 1013.6 hPa 65% 0.0mm
03/06:30pm SE 11-19 kts 26.4°c 1013.4 hPa 63% 0.0mm
03/06:00pm SE 16-21 kts 26.6°c 1013.1 hPa 63% 0.0mm
03/05:30pm ESE 16-23 kts 27.2°c 1012.8 hPa 61% 0.0mm
03/05:00pm ESE 16-22 kts 27.7°c 1012.6 hPa 60% 0.0mm
03/04:30pm SE 17-25 kts 28.2°c 1012.3 hPa 61% 0.0mm
03/04:00pm ESE 17-24 kts 28.0°c 1012.2 hPa 58% 0.0mm
03/03:30pm ESE 18-25 kts 28.7°c 1012.3 hPa 58% 0.0mm
03/03:00pm ESE 18-25 kts 28.9°c 1012.4 hPa 60% 0.0mm
03/02:30pm ESE 19-27 kts 28.8°c 1012.5 hPa 59% 0.0mm
03/02:00pm ESE 18-26 kts 28.9°c 1013.0 hPa 59% 0.0mm
03/01:30pm ESE 19-26 kts 29.0°c 1013.4 hPa 59% 0.0mm
03/01:00pm ESE 19-25 kts 29.0°c 1013.8 hPa 59% 0.0mm
03/12:30pm ESE 18-25 kts 29.2°c 1014.1 hPa 61% 0.0mm
03/12:00pm ESE 18-25 kts 28.8°c 1014.4 hPa 61% 0.0mm
03/11:30am ESE 20-25 kts 28.6°c 1014.7 hPa 63% 0.0mm
03/11:00am ESE 19-24 kts 28.7°c 1015.0 hPa 64% 0.0mm
03/10:30am ESE 18-27 kts 28.1°c 1015.1 hPa 65% 0.0mm
03/10:00am SE 17-26 kts 27.8°c 1015.2 hPa 67% 0.0mm
03/09:30am SE 16-24 kts 27.9°c 1015.2 hPa 70% 0.0mm
03/09:00am SE 15-23 kts 26.5°c 1015.1 hPa 71% 0.0mm
03/08:30am SE 12-18 kts 26.5°c 1015.0 hPa 72% 0.0mm
03/08:00am SE 13-17 kts 26.4°c 1014.7 hPa 73% 0.0mm
03/07:30am SE 11-18 kts 25.6°c 1014.5 hPa 75% 0.0mm
03/07:00am SE 9-14 kts 25.0°c 1014.4 hPa 75% 0.0mm
03/06:30am SE 9-12 kts 24.8°c 1014.0 hPa 75% 0.0mm
03/06:00am SE 10-14 kts 25.0°c 1013.8 hPa 75% 0.0mm
03/05:30am SSE 10-14 kts 25.0°c 1013.7 hPa 75% 0.0mm
03/05:00am SE 9-13 kts 24.9°c 1013.5 hPa 75% 0.0mm
03/04:30am SE 9-12 kts 24.8°c 1013.5 hPa 75% 0.0mm
03/04:00am SSE 9-13 kts 24.8°c 1013.6 hPa 75% 0.0mm
03/03:30am SE 9-12 kts 24.8°c 1013.7 hPa 75% 0.0mm
03/03:00am SE 8-11 kts 24.6°c 1013.9 hPa 75% 0.0mm
03/02:30am SE 9-13 kts 24.6°c 1014.3 hPa 74% 0.0mm
03/02:00am SE 10-14 kts 24.8°c 1014.5 hPa 74% 0.0mm
03/01:30am SE 11-16 kts 25.0°c 1014.8 hPa 73% 0.0mm
03/01:00am SE 10-15 kts 24.9°c 1015.1 hPa 73% 0.0mm
03/12:30am SE 10-15 kts 24.9°c 1015.3 hPa 73% 0.0mm
03/12:00am SE 10-16 kts 25.0°c 1015.4 hPa 72% 0.0mm